Location: Unspecified
(43.4680°N, 87.1740°E)
Time: 19:50:43
(UTC+00:00)

IGS 5A - Pass Details

Date: 17 April 2021
Orbit: 583 x 588 km, 97.6° (Epoch: 06 May)

Event Time Altitude Azimuth Distance (km) Brightness Sun altitude
Exits shadow 14:31:46 32° 126° (SE) 1,006 4.1 -16.5°
Maximum altitude 14:33:15 48° 73° (ENE) 769 3.7 -16.7°
Drops below altitude 10° 14:37:15 10° 359° (N) 1,914 6.5 -17.3°
Sets 14:39:28 0° 354° (N) 2,819 7.6 -17.6°
